Regional Weather Roundup
Issued by NWS

Home | Current Version | Previous Version | Text Only | Print | Product List | Glossary Off
Versions: 1 2 3 4 5 6 7 8 9 10 11 12 13 14 15 16 17 18 19 20 21 22 23 24 25 26 27 28

000
ASUS45 KCYS 242210
RWRWY

WYOMING REGIONAL WEATHER ROUNDUP
NATIONAL WEATHER SERVICE CHEYENNE WY
300 PM MST FRI NOV 24 2017

NOTE:  "FAIR" INDICATES FEW OR NO CLOUDS BELOW 12,000 FEET
WITH NO SIGNIFICANT WEATHER AND/OR OBSTRUCTIONS TO VISIBILITY.

WYZ001-242300-
YELLOWSTONE NATIONAL PARK

CITY           SKY/WX    TMP DP  RH WIND       PRES   REMARKS
LK YELLOWSTONE   N/A     38  23  55 VRB6      30.04S WCI  33
W YELLOWSTONE  NOT AVBL

$$
WYZ002>013-054>058-071-098>099-242300-
NORTHERN WYOMING

CITY           SKY/WX    TMP DP  RH WIND       PRES   REMARKS
JACKSON        CLOUDY    44  30  57 S18G24    30.03R
CODY           FAIR      54  19  25 W16G28    29.89R
GREYBULL       FAIR      55  25  31 CALM      29.87S
WORLAND        FAIR      53  22  29 S5        29.89F
SHERIDAN       FAIR      51  18  27 CALM      29.88F
BUFFALO        FAIR      47  13  25 N5        29.91R
GILLETTE       FAIR      49  20  31 NW7       29.90R
HULETT         FAIR      46  25  42 NW8       29.89S
NEWCASTLE      FAIR      48  21  34 N17G23    29.91R

$$
WYZ014>020-022>026-101>103-242300-
CENTRAL WYOMING

CITY           SKY/WX    TMP DP  RH WIND       PRES   REMARKS
BIG PINEY      PTSUNNY   48  31  51 N13       30.06R
PINEDALE       FAIR      43  32  65 NW13      30.07R
DUBOIS         FAIR      41  30  65 NW24G31   29.97R
LANDER         FAIR      51  39  63 CALM      29.93R
RIVERTON       FAIR      48  42  80 S9        29.94S
CASPER         FAIR      43  35  73 E9        29.95R
DOUGLAS        PTSUNNY   46  29  51 NW10      29.94S

$$
WYZ021-027>030-104>119-242300-
SOUTHERN WYOMING

CITY           SKY/WX    TMP DP  RH WIND       PRES   REMARKS
EVANSTON       CLOUDY    47  33  58 W21G28    30.12R
KEMMERER       CLOUDY    41  34  75 W15G23    30.10R
FORT BRIDGER   CLOUDY    47  33  56 NW20G28   30.14R
ROCK SPRINGS   CLOUDY    47  33  58 NW16      30.07R
DIXON          CLOUDY    57  26  31 W31G37    30.05R
RAWLINS        LGT RAIN  50  31  48 W21G40    29.99R
SARATOGA       RAIN      46  32  57 NW16G44   30.02R
LARAMIE        PTSUNNY   49  31  49 NW23      29.97R
CHEYENNE       FAIR      55  30  38 NW23G32   29.93S
TORRINGTON     FAIR      54  26  34 N13G24    29.91R
PINE BLUFFS    FAIR      54  34  47 N14       29.94R

$$




USA.gov is the U.S. government's official web portal to all federal, state and local government web resources and services.